Location: Asheville, NC
(35.6000°N, 82.5500°W)
Time: 07:05:01
(UTC-04:00)

Vanguard 3 - Pass Details

Date: 15 December 2017
Orbit: 508 x 3264 km, 33.3° (Epoch: 18 July)

Event Time Altitude Azimuth Distance (km) Brightness Sun altitude
Rises 11:26:21 0° 234° (SW) 4,104 11.0 29.5°
Reaches altitude 10° 11:30:00 10° 226° (SW) 2,717 10.3 29.7°
Maximum altitude 11:35:21 33° 164° (SSE) 1,181 11.6 29.9°
Drops below altitude 10° 11:39:05 10° 99° (E) 1,879 9.4 30.1°
Sets 11:41:11 0° 89° (E) 2,665 9.9 30.2°
